Location: Balsareny
(41.8670°N, 1.8830°E)
Time: 03:21:04
(UTC+02:00)

Tiangong - Pass Details

Date: 27 June 2021
Orbit: 373 x 386 km, 41.5° (Epoch: 28 July)

Event Time Altitude Azimuth Distance (km) Brightness Sun altitude
Exits shadow 04:07:01 71° 252° (WSW) 402 0.9 -18.1°
Maximum altitude 04:07:18 85° 179° (S) 382 0.9 -18.0°
Drops below altitude 10° 04:10:26 10° 89° (E) 1,388 4.3 -17.7°
Sets 04:12:31 0° 89° (E) 2,243 5.4 -17.5°
